Home > Weather > Gjøvik > Past weeks

Flag for Norway Weather for the Past 2 Weeks in Gjøvik, Norway

Now
58 °F

Refreshingly cool.


Feels Like: 58 °F
Forecast: 35 / 60 °F
Wind: 5 mph from South

Location: Lillehammer-Saetherengen

Current Time: May 5, 2016 at 2:51:32 PM

Latest Report: May 5, 2016 at 2:00 PM


Visibility: N/A

Pressure: 30.19 "Hg

Humidity: 33%

Dew Point: 29 °F

Location of GjøvikLocation

Historic Weather in Gjøvik — Graph

°F

Gjøvik Temperature Yesterday

Maximum temperature yesterday: 58 °F (at 5:00 PM)
Minimum temperature yesterday: 30 °F (at 6:00 AM)
Average temperature yesterday: 45 °F

High & Low Weather Summary for the Past Weeks

 TemperatureHumidityPressure
High58 °F (May 4, 5:00 PM)98% (Apr 30, 9:00 PM)30.28 "Hg (Apr 30, 9:00 PM)
Low26 °F (Apr 23, 5:00 AM)23% (Apr 27, 5:00 PM)29.54 "Hg (Apr 29, 7:00 AM)
Average40 °F60%29.95 "Hg
* Reported Apr 20 1:00 PM — May 5 1:00 PM, Gjøvik, Weather by CustomWeather, © 2016

Note: Actual official high and low records may vary slightly from our data, if they occured in-between our weather recording intervals... More about our weather records

Advertising

Gjøvik Weather History for the Previous 24 Hours

Scroll right to see more
 ConditionsComfort  
Time TempWeatherWind HumidityBarometerVisibility
1:00 PM
Thu, May 5
56 °FRefreshingly cool.5 mph37%30.20 "HgN/A
12:00 PM55 °FCool.3 mph40%30.21 "HgN/A
11:00 AM49 °FCool.2 mph57%30.23 "HgN/A
10:00 AM46 °FCool.1 mph65%30.24 "HgN/A
9:00 AM43 °FQuite cool.2 mph69%30.25 "HgN/A
8:00 AM40 °FQuite cool.1 mph70%30.26 "HgN/A
7:00 AM36 °FChilly.1 mph81%30.27 "HgN/A
6:00 AM35 °FChilly.1 mph82%30.28 "HgN/A
5:00 AM37 °FChilly.No wind75%30.27 "HgN/A
4:00 AM38 °FChilly.1 mph73%30.27 "HgN/A
3:00 AM38 °FChilly.1 mph73%30.28 "HgN/A
2:00 AM40 °FChilly.1 mph69%30.28 "HgN/A
1:00 AM39 °FChilly.1 mph70%30.28 "HgN/A
12:00 AM40 °FChilly.1 mph65%30.28 "HgN/A
11:00 PM
Wed, May 4
42 °FQuite cool.1 mph58%30.27 "HgN/A
10:00 PM45 °FCool.1 mph48%30.26 "HgN/A
9:00 PM50 °FCool.3 mph35%30.24 "HgN/A
8:00 PM53 °FCool.2 mph31%30.22 "HgN/A
7:00 PM57 °FRefreshingly cool.3 mph29%30.20 "HgN/A
6:00 PM58 °FRefreshingly cool.3 mph31%30.19 "HgN/A
5:00 PM58 °FRefreshingly cool.3 mph29%30.20 "HgN/A
4:00 PM57 °FRefreshingly cool.3 mph32%30.21 "HgN/A
3:00 PM57 °FRefreshingly cool.1 mph37%30.22 "HgN/A
2:00 PM56 °FRefreshingly cool.2 mph38%30.22 "HgN/A
Weather by CustomWeather, © 2016

See weather overviewHow to use our weather pages